Flag for China Weather past 2 weeks in Chengdu, Sichuan, China

Now
82 °F

Passing clouds.


Feels Like: 88 °F
Forecast: 71 / 86 °F
Wind: 6 mph from Southwest

Location: Chengdu Airport

Current Time: Aug 31, 2015 at 5:07:56 PM

Latest Report: Aug 31, 2015 at 4:00 PM


Visibility: 4 mi

Pressure: 29.83 "Hg

Humidity: 74%

Dew point: 73 °F

Location of ChengduLocation

Historic Weather in Chengdu — Graph

°F

Chengdu temperature yesterday

Maximum temperature yesterday: 84 °F (at 1:00 PM)
Minimum temperature yesterday: 72 °F (at 4:00 AM)
Average temperature yesterday: 77 °F

Past Weeks' High & Low Weather Summary

 TemperatureHumidityPressure
High93 °F (Aug 23, 3:00 PM)100% (Aug 16, 4:00 PM)30.04 "Hg (Aug 16, 4:00 PM)
Low68 °F (Aug 19, 5:00 AM)31% (Aug 20, 3:00 PM)29.65 "Hg (Aug 23, 4:00 PM)
Average76 °F83%29.83 "Hg
* Reported Aug 16 4:00 PM — Aug 31 4:00 PM, Chengdu, Weather by CustomWeather, © 2015

Note: Actual official high and low records may vary slightly from our data, if they occured in-between our weather recording intervals... More about our weather records

Advertising

Chengdu weather history for previous 24 hours

 ConditionsComfort  
Time TempWeatherWind HumidityBarometerVisibility
4:00 PM
Mon, Aug 31
82 °FPassing clouds.6 mph74%29.83 "Hg4 mi
3:00 PM82 °FSprinkles. Passing clouds.3 mph70%29.83 "Hg4 mi
2:00 PM82 °FPassing clouds.1 mph70%29.86 "Hg4 mi
1:00 PM81 °FPassing clouds.3 mph74%29.86 "Hg4 mi
12:00 PM79 °FFog.3 mph79%29.89 "Hg3 mi
11:00 AM77 °FSprinkles. Fog.3 mph83%29.89 "Hg2 mi
10:00 AM77 °FSprinkles. Fog.1 mph89%29.89 "Hg2 mi
9:00 AM75 °FFog.1 mph94%29.86 "Hg2 mi
8:00 AM73 °FFog.1 mph100%29.86 "Hg1 mi
7:00 AM73 °FFog.3 mph94%29.86 "Hg1 mi
6:00 AM73 °FFog.1 mph94%29.83 "Hg2 mi
5:00 AM75 °FFog.1 mph83%29.83 "Hg2 mi
4:00 AM73 °FFog.1 mph94%29.83 "Hg2 mi
3:00 AM75 °FFog.1 mph89%29.83 "Hg2 mi
2:00 AM73 °FFog.1 mph94%29.83 "Hg2 mi
1:00 AM75 °FFog.1 mph89%29.83 "Hg2 mi
12:00 AM75 °FFog.1 mph94%29.83 "Hg2 mi
11:00 PM
Sun, Aug 30
75 °FFog.1 mph94%29.83 "Hg3 mi
10:00 PM75 °FClear.1 mph94%29.83 "Hg10 mi
9:00 PM77 °FClear.1 mph83%29.80 "Hg10 mi
8:00 PM77 °FPassing clouds.1 mph83%29.77 "HgN/A
7:00 PM79 °FScattered clouds.1 mph79%29.77 "HgN/A
6:00 PM81 °FScattered clouds.1 mph84%29.77 "HgN/A
5:00 PM82 °FScattered clouds.1 mph70%29.77 "HgN/A
Weather by CustomWeather, © 2015

See weather overviewHow to use our weather pages